Time,TemperatureF,DewpointF,PressureIn,WindDirection,WindDirectionDegrees,WindSpeedMPH,WindSpeedGustMPH,Humidity,HourlyPrecipIn,Conditions,Clouds,dailyrainin,SoftwareType,DateUTC
2013-06-28 00:01:00,62.0,55.0,-100.00,SSW,200,0.0,1.0,78,0.00,,,-99.99,,2013-06-28 05:01:00,
2013-06-28 00:11:00,62.0,55.0,-100.00,SSW,200,0.0,1.0,78,0.00,,,-99.99,,2013-06-28 05:11:00,
2013-06-28 00:33:00,62.0,55.0,-100.00,SSE,150,0.0,1.0,80,0.00,,,-99.99,,2013-06-28 05:33:00,
2013-06-28 00:43:00,62.0,55.0,-100.00,SSE,150,0.0,1.0,80,0.00,,,-99.99,,2013-06-28 05:43:00,
2013-06-28 00:53:00,62.0,55.0,-100.00,SSE,150,0.0,1.0,80,0.00,,,-99.99,,2013-06-28 05:53:00,
2013-06-28 01:02:00,62.0,55.0,-100.00,SSE,150,0.0,1.0,80,0.00,,,-99.99,,2013-06-28 06:02:00,
2013-06-28 01:12:00,62.0,55.0,-100.00,SSE,150,0.0,1.0,80,0.00,,,-99.99,,2013-06-28 06:12:00,
2013-06-28 01:33:00,61.0,55.0,-100.00,South,185,0.0,1.0,81,0.00,,,-99.99,,2013-06-28 06:33:00,
2013-06-28 01:42:00,61.0,55.0,-100.00,SSE,150,1.0,2.0,81,0.00,,,-99.99,,2013-06-28 06:42:00,
2013-06-28 01:52:00,61.0,55.0,-100.00,SSE,150,1.0,2.0,81,0.00,,,-99.99,,2013-06-28 06:52:00,
2013-06-28 02:01:00,61.0,55.0,-100.00,SSE,150,1.0,2.0,81,0.00,,,-99.99,,2013-06-28 07:01:00,
2013-06-28 02:11:00,61.0,55.0,-100.00,SSE,150,1.0,2.0,81,0.00,,,-99.99,,2013-06-28 07:11:00,
2013-06-28 02:33:00,62.0,56.0,-100.00,NW,315,1.0,6.0,81,0.00,,,-99.99,,2013-06-28 07:33:00,
2013-06-28 02:43:00,62.0,56.0,-100.00,NW,315,1.0,6.0,81,0.00,,,-99.99,,2013-06-28 07:43:00,
2013-06-28 02:52:00,62.0,56.0,-100.00,NW,315,1.0,6.0,81,0.00,,,-99.99,,2013-06-28 07:52:00,
2013-06-28 03:01:00,62.0,56.0,-100.00,NW,315,1.0,6.0,81,0.00,,,-99.99,,2013-06-28 08:01:00,
2013-06-28 03:11:00,62.0,56.0,-100.00,NW,315,1.0,6.0,81,0.00,,,-99.99,,2013-06-28 08:11:00,
2013-06-28 04:11:00,65.0,51.0,-100.00,WNW,295,2.0,7.0,61,0.00,,,-99.99,,2013-06-28 09:11:00,
2013-06-28 05:33:00,62.0,51.0,-100.00,NW,325,2.0,9.0,67,0.00,,,-99.99,,2013-06-28 10:33:00,
2013-06-28 05:42:00,62.0,51.0,-100.00,NW,325,2.0,9.0,67,0.00,,,-99.99,,2013-06-28 10:42:00,
2013-06-28 05:52:00,62.0,51.0,-100.00,NW,325,2.0,9.0,67,0.00,,,-99.99,,2013-06-28 10:52:00,
2013-06-28 06:02:00,62.0,51.0,-100.00,NW,325,2.0,9.0,67,0.00,,,-99.99,,2013-06-28 11:02:00,
2013-06-28 06:11:00,62.0,51.0,-100.00,NW,325,2.0,9.0,67,0.00,,,-99.99,,2013-06-28 11:11:00,
2013-06-28 06:34:00,62.0,52.0,-100.00,North,0,3.0,9.0,69,0.00,,,-99.99,,2013-06-28 11:34:00,
2013-06-28 06:43:00,62.0,52.0,-100.00,North,0,3.0,9.0,69,0.00,,,-99.99,,2013-06-28 11:43:00,
2013-06-28 06:53:00,62.0,52.0,-100.00,North,0,3.0,9.0,69,0.00,,,-99.99,,2013-06-28 11:53:00,
2013-06-28 07:02:00,62.0,52.0,-100.00,North,0,3.0,9.0,69,0.00,,,-99.99,,2013-06-28 12:02:00,
2013-06-28 07:12:00,62.0,52.0,-100.00,North,0,3.0,9.0,69,0.00,,,-99.99,,2013-06-28 12:12:00,
2013-06-28 12:33:00,69.0,54.0,-100.00,NW,310,2.0,9.0,58,0.00,,,-99.99,,2013-06-28 17:33:00,
2013-06-28 12:44:00,69.0,54.0,-100.00,NW,310,2.0,9.0,58,0.00,,,-99.99,,2013-06-28 17:44:00,
2013-06-28 12:52:00,69.0,54.0,-100.00,NW,310,2.0,9.0,58,0.00,,,-99.99,,2013-06-28 17:52:00,
2013-06-28 13:02:00,69.0,54.0,-100.00,NW,310,2.0,9.0,58,0.00,,,-99.99,,2013-06-28 18:02:00,
2013-06-28 13:33:00,68.0,58.0,-100.00,NNW,335,1.0,4.0,72,0.17,,,-99.99,,2013-06-28 18:33:00,
2013-06-28 13:43:00,68.0,58.0,-100.00,NNW,335,1.0,4.0,72,0.17,,,-99.99,,2013-06-28 18:43:00,
2013-06-28 13:52:00,68.0,58.0,-100.00,NNW,335,1.0,4.0,72,0.17,,,-99.99,,2013-06-28 18:52:00,
2013-06-28 14:01:00,68.0,58.0,-100.00,NNW,335,1.0,4.0,72,0.17,,,-99.99,,2013-06-28 19:01:00,
2013-06-28 14:11:00,68.0,58.0,-100.00,NNW,335,1.0,4.0,72,0.17,,,-99.99,,2013-06-28 19:11:00,
2013-06-28 14:33:00,72.0,60.0,-100.00,NNW,345,5.0,9.0,65,0.00,,,-99.99,,2013-06-28 19:33:00,
2013-06-28 14:43:00,71.0,57.0,-100.00,NW,315,3.0,7.0,60,0.00,,,-99.99,,2013-06-28 19:43:00,
2013-06-28 14:53:00,71.0,57.0,-100.00,NW,315,3.0,7.0,60,0.00,,,-99.99,,2013-06-28 19:53:00,
2013-06-28 15:02:00,71.0,57.0,-100.00,NW,315,3.0,7.0,60,0.00,,,-99.99,,2013-06-28 20:02:00,
2013-06-28 15:11:00,71.0,57.0,-100.00,NW,315,3.0,7.0,60,0.00,,,-99.99,,2013-06-28 20:11:00,
2013-06-28 15:43:00,73.0,57.0,-100.00,NW,310,3.0,7.0,56,0.00,,,-99.99,,2013-06-28 20:43:00,
2013-06-28 15:52:00,73.0,57.0,-100.00,NW,310,3.0,7.0,56,0.00,,,-99.99,,2013-06-28 20:52:00,
2013-06-28 16:02:00,73.0,57.0,-100.00,NW,310,3.0,7.0,56,0.00,,,-99.99,,2013-06-28 21:02:00,
2013-06-28 16:11:00,73.0,57.0,-100.00,NW,310,3.0,7.0,56,0.00,,,-99.99,,2013-06-28 21:11:00,
2013-06-28 18:34:00,68.0,58.0,-100.00,North,0,3.0,11.0,70,0.00,,,-99.99,,2013-06-28 23:34:00,
2013-06-28 18:43:00,69.0,57.0,-100.00,North,0,6.0,9.0,67,0.00,,,-99.99,,2013-06-28 23:43:00,
2013-06-28 18:53:00,69.0,57.0,-100.00,North,0,6.0,9.0,67,0.00,,,-99.99,,2013-06-28 23:53:00,
2013-06-28 19:02:00,69.0,57.0,-100.00,North,0,6.0,9.0,67,0.00,,,-99.99,,2013-06-29 00:02:00,
2013-06-28 19:11:00,69.0,57.0,-100.00,North,0,6.0,9.0,67,0.00,,,-99.99,,2013-06-29 00:11:00,
2013-06-28 19:42:00,68.0,58.0,-100.00,North,0,5.0,9.0,70,0.00,,,-99.99,,2013-06-29 00:42:00,
2013-06-28 19:52:00,68.0,58.0,-100.00,North,0,5.0,9.0,70,0.00,,,-99.99,,2013-06-29 00:52:00,
2013-06-28 20:01:00,68.0,58.0,-100.00,North,0,5.0,9.0,70,0.00,,,-99.99,,2013-06-29 01:01:00,
2013-06-28 20:11:00,68.0,58.0,-100.00,North,0,5.0,9.0,70,0.00,,,-99.99,,2013-06-29 01:11:00,
2013-06-28 20:42:00,65.0,57.0,-100.00,ENE,60,1.0,2.0,78,0.00,,,-99.99,,2013-06-29 01:42:00,
2013-06-28 20:52:00,65.0,57.0,-100.00,ENE,60,1.0,2.0,78,0.00,,,-99.99,,2013-06-29 01:52:00,
2013-06-28 21:01:00,65.0,57.0,-100.00,ENE,60,1.0,2.0,78,0.00,,,-99.99,,2013-06-29 02:01:00,
2013-06-28 21:11:00,65.0,57.0,-100.00,ENE,60,1.0,2.0,78,0.00,,,-99.99,,2013-06-29 02:11:00,
2013-06-28 21:31:00,63.0,57.0,-100.00,NNW,330,0.0,1.0,80,0.00,,,-99.99,,2013-06-29 02:31:00,
2013-06-28 21:41:00,63.0,57.0,-100.00,North,10,0.0,1.0,80,0.00,,,-99.99,,2013-06-29 02:41:00,
2013-06-28 21:51:00,63.0,57.0,-100.00,North,10,0.0,1.0,80,0.00,,,-99.99,,2013-06-29 02:51:00,
2013-06-28 22:01:00,63.0,57.0,-100.00,North,10,0.0,1.0,80,0.00,,,-99.99,,2013-06-29 03:01:00,
2013-06-28 22:11:00,63.0,57.0,-100.00,North,10,0.0,1.0,80,0.00,,,-99.99,,2013-06-29 03:11:00,
2013-06-28 22:41:00,63.0,57.0,-100.00,North,0,0.0,0.0,81,0.00,,,-99.99,,2013-06-29 03:41:00,
2013-06-28 22:51:00,63.0,57.0,-100.00,North,0,0.0,0.0,81,0.00,,,-99.99,,2013-06-29 03:51:00,
2013-06-28 23:01:00,63.0,57.0,-100.00,North,0,0.0,0.0,81,0.00,,,-99.99,,2013-06-29 04:01:00,
2013-06-28 23:11:00,63.0,57.0,-100.00,North,0,0.0,0.0,81,0.00,,,-99.99,,2013-06-29 04:11:00,
2013-06-28 23:41:00,63.0,57.0,-100.00,NNE,20,1.0,4.0,81,0.00,,,-99.99,,2013-06-29 04:41:00,
2013-06-28 23:51:00,63.0,57.0,-100.00,NNE,20,1.0,4.0,81,0.00,,,-99.99,,2013-06-29 04:51:00,